Location: Harwich
(41.7160°N, 69.9939°W)
Time: 09:54:50
(UTC+01:00)

A-11 Canister half - Visible Passes

Search period start: 29 November 2023 00:00
Search period end: 09 December 2023 00:00
Orbit: 1524 x 1684 km, 47.3° (Epoch: 28 November)

Date Brightness Start Highest point End Pass type
(mag) Time Alt. Az. Time Alt. Az. Time Alt. Az.
29 Nov 9.6 01:30:11 10° SSW 01:37:10 43° S 01:37:10 43° S visible
29 Nov 11.1 03:34:40 10° WSW 03:35:30 13° WSW 03:35:30 13° WSW visible
29 Nov 10.7 08:03:50 20° ESE 08:03:50 20° ESE 08:06:09 10° ESE visible
29 Nov 9.8 10:02:10 31° SSW 10:02:10 31° SSW 10:08:42 10° S visible
29 Nov 10.6 23:10:42 10° SE 23:14:49 13° ESE 23:18:46 10° E visible
30 Nov 9.4 01:08:31 10° SSW 01:17:04 49° SSE 01:17:04 49° SSE visible
30 Nov 10.8 03:12:51 10° WSW 03:15:24 20° WSW 03:15:24 20° WSW visible
30 Nov 11.1 07:43:49 12° ESE 07:43:49 12° ESE 07:44:26 10° ESE visible
30 Nov 10.0 09:42:09 28° SSW 09:42:09 28° SSW 09:47:12 10° SSE visible
30 Nov 10.6 22:49:51 10° SE 22:53:10 12° ESE 22:56:29 10° E visible
01 Dec 9.3 00:46:53 10° SSW 00:56:26 48° SE 00:56:57 48° SE visible
01 Dec 10.4 02:51:04 10° WSW 02:55:16 29° WSW 02:55:16 29° WSW visible
01 Dec 10.3 09:22:09 23° S 09:22:09 23° S 09:25:42 10° SSE visible
02 Dec 9.4 00:25:15 10° SSW 00:34:43 46° SE 00:36:46 42° ESE visible
02 Dec 10.0 02:29:15 10° WSW 02:35:05 41° WSW 02:35:05 41° WSW visible
02 Dec 10.6 09:02:10 17° S 09:02:10 17° S 09:04:10 10° SSE visible
03 Dec 9.5 00:03:38 10° SSW 00:13:00 44° SE 00:16:32 34° E visible
03 Dec 9.5 02:07:27 10° WSW 02:14:50 55° WSW 02:14:50 55° WSW visible
03 Dec 11.0 08:42:10 12° SSE 08:42:10 12° SSE 08:42:38 10° SSE visible
03 Dec 9.6 23:42:03 10° SSW 23:51:17 42° SE 23:56:15 26° E visible
04 Dec 9.2 01:45:40 10° WSW 01:54:34 72° WSW 01:54:34 72° WSW visible
04 Dec 11.1 03:51:47 10° W 03:52:52 14° W 03:52:52 14° W visible
04 Dec 9.7 23:20:27 10° SSW 23:29:34 40° SE 23:35:56 20° E visible
05 Dec 8.9 01:23:53 10° WSW 01:34:07 88° NNW 01:34:14 88° NNE visible
05 Dec 10.8 03:29:56 10° W 03:32:32 20° WNW 03:32:32 20° WNW visible
05 Dec 9.8 22:58:52 10° SSW 23:07:52 38° SE 23:15:34 14° ENE visible
06 Dec 8.9 01:02:06 10° WSW 01:12:21 89° SE 01:13:52 70° ENE visible
06 Dec 10.5 03:08:06 10° W 03:12:10 28° WNW 03:12:10 28° WNW visible
06 Dec 9.9 22:37:19 10° SSW 22:46:09 36° SE 22:55:01 10° ENE visible
07 Dec 9.0 00:40:21 10° WSW 00:50:33 87° SSE 00:53:28 54° ENE visible
07 Dec 10.2 02:46:17 10° W 02:51:46 36° WNW 02:51:46 36° WNW visible
08 Dec 9.1 00:18:35 10° WSW 00:28:47 85° SSE 00:33:01 42° ENE visible
08 Dec 9.8 02:24:27 10° W 02:31:19 46° WNW 02:31:19 46° WNW visible
